TimeMST,TemperatureF,Dew PointF,Humidity,Sea Level PressureIn,VisibilityMPH,Wind Direction,Wind SpeedMPH,Gust SpeedMPH,PrecipitationIn,Events,Conditions,WindDirDegrees,DateUTC
12:53 AM,35.1,10.0,35,29.99,10.0,WSW,25.3,-,N/A,,Clear,240,2013-01-24 07:53:00
1:53 AM,33.1,10.0,38,30.01,-9999.0,WSW,16.1,-,N/A,,Clear,250,2013-01-24 08:53:00
2:53 AM,28.0,10.0,47,30.07,10.0,West,10.4,20.7,N/A,,Clear,270,2013-01-24 09:53:00
3:53 AM,35.1,9.0,34,30.01,10.0,WSW,20.7,-,N/A,,Clear,240,2013-01-24 10:53:00
4:53 AM,34.0,10.0,37,30.00,10.0,SW,16.1,-,N/A,,Clear,230,2013-01-24 11:53:00
5:53 AM,34.0,9.0,35,30.03,10.0,WSW,17.3,-,N/A,,Clear,240,2013-01-24 12:53:00
6:53 AM,28.0,9.0,45,30.05,10.0,WSW,6.9,16.1,N/A,,Clear,240,2013-01-24 13:53:00
7:53 AM,35.1,8.1,33,30.00,10.0,SW,19.6,-,N/A,,Clear,220,2013-01-24 14:53:00
8:53 AM,39.0,10.0,30,29.99,10.0,SW,15.0,19.6,N/A,,Clear,220,2013-01-24 15:53:00
9:53 AM,44.1,14.0,30,29.95,10.0,SSW,18.4,-,N/A,,Clear,210,2013-01-24 16:53:00
10:53 AM,44.1,17.1,34,29.96,10.0,WSW,16.1,27.6,N/A,,Partly Cloudy,250,2013-01-24 17:53:00
11:53 AM,46.0,23.0,40,29.92,10.0,West,29.9,36.8,N/A,,Clear,260,2013-01-24 18:53:00
12:53 PM,44.1,26.1,49,29.94,10.0,West,28.8,40.3,N/A,,Mostly Cloudy,280,2013-01-24 19:53:00
1:53 PM,46.0,26.1,46,29.93,10.0,West,32.2,39.1,N/A,,Scattered Clouds,270,2013-01-24 20:53:00
2:53 PM,42.1,27.0,55,30.03,10.0,West,25.3,40.3,N/A,,Overcast,280,2013-01-24 21:53:00
3:53 PM,39.9,27.0,60,29.99,10.0,West,34.5,42.6,N/A,,Clear,260,2013-01-24 22:53:00
4:53 PM,37.9,27.0,65,30.05,10.0,West,26.5,-,N/A,,Partly Cloudy,270,2013-01-24 23:53:00
5:53 PM,37.0,27.0,67,30.04,10.0,WSW,32.2,39.1,N/A,,Overcast,250,2013-01-25 00:53:00
6:53 PM,37.0,28.0,70,30.14,10.0,WNW,11.5,-,N/A,,Partly Cloudy,290,2013-01-25 01:53:00
7:53 PM,37.0,27.0,67,30.10,10.0,SW,17.3,29.9,N/A,,Overcast,230,2013-01-25 02:53:00
8:53 PM,35.1,27.0,72,30.08,10.0,West,23.0,32.2,N/A,,Partly Cloudy,260,2013-01-25 03:53:00
9:53 PM,35.1,26.1,70,30.06,10.0,SW,16.1,-,N/A,,Partly Cloudy,220,2013-01-25 04:53:00
10:53 PM,35.1,25.0,67,30.06,10.0,WSW,24.2,-,N/A,,Clear,250,2013-01-25 05:53:00
11:53 PM,33.1,25.0,72,30.07,10.0,West,20.7,-,N/A,,Clear,260,2013-01-25 06:53:00